Location: Hilton Head Island
(32.2163°N, 80.7526°W)
Time: 23:09:01
(UTC-04:00)

Tiros 1 despin weight - Pass Details

Date: 17 February 2026
Orbit: 556 x 593 km, 48.2° (Epoch: 13 March)

Event Time Altitude Azimuth Distance (km) Brightness Sun altitude
Rises 15:07:59 0° 244° (WSW) 2,740 ? 33.1°
Reaches altitude 10° 15:10:19 10° 251° (WSW) 1,841 ? 32.8°
Maximum altitude 15:14:22 46° 325° (NW) 753 ? 32.1°
Drops below altitude 10° 15:18:24 10° 39° (NE) 1,835 ? 31.5°
Sets 15:20:43 0° 46° (NE) 2,731 ? 31.1°
